Dinard-Pleurtuit-Saint-Malo Airport

Jump to: basic info | weather | frequencies | runways | comments

Related pages: nearby airports | nearby navaids | notams | map

Basic information (top)

Codes: DNR LFRD
Location: lon 48.587700, lat -2.079960, elev 219 ft / 67 m msl
Status: medium_airport
Scheduled airline service: yes
Links: Wikipedia Mobile

Weather (top)

Current conditions (rec'd 2015/01/25 18:00Z):

LFRD 251800Z AUTO 22004KT 9999 OVC038 07/02 Q1032

Airport forecast (rec'd 2015/01/25 18:14Z):

TAF LFRD 251700Z 2518/2618 24005KT 9999 BKN030 
      BECMG 2519/2521 19010KT 
      BECMG 2601/2603 BKN015 
      TEMPO 2603/2615 3000 RADZ BKN004 
      BECMG 2609/2612 25010KT 
      BECMG 2613/2615 34015KT 9999 BKN020

Frequencies (top)

Verify before use: may be inaccurate or out of date.

ATIS: 124.575 MHz (DINARD ATIS)
TWR: 120.15 MHz (DINARD TWR)

Runways (top)

12/30: 4,708 x 148 ft (1,435 x 45 m) — paved — not lighted — threshold 30 displaced 476 ft (145 m)

17/35: 7,218 x 148 ft (2,200 x 45 m) — paved — lighted

Latest comments (top)

No comments yet for Dinard-Pleurtuit-Saint-Malo Airport

More... (top)

See also NOTAMs and nearby airports and navaids, or visit the Dinard-Pleurtuit-Saint-Malo Airport page at the main OurAirports website..